Tracking 29768 objects as of 3-Oct-2024
HD Live streaming from Space Station
objects crossing your sky now

USA 404

Track USA 404 now!
10-day predictions


NORAD ID: 61025
Int'l Code: 2024-160E
Perigee: 522.9 km
Apogee: 525.6 km
Inclination: 70.0 °
Period: 95.0 minutes
Semi major axis: 6895 km
RCS: Unknown
Launch date: September 6, 2024
Source: United States (US)
Launch site: AIR FORCE WESTERN TEST RANGE (AFWTR)
Your satellite tracking list
Your tracking list is empty




NASA's NSSDC Master Catalog

Two Line Element Set (TLE):
1 61025U 24160E   24265.79740909 0.00000000  00000-0  00000-0 0    04
2 61025  70.0000 164.9532 0002000 195.2293 164.7707 15.16275952    01
Source of the keplerian elements: McCants